TIANLIAN-2 05

导读

TIANLIAN-2 05(天链二号05星)是中国于2025年4月27日在西昌卫星发射中心成功发射的第二代地球同步轨道数据中继卫星,由长征三号乙运载火箭送入预定轨道。该卫星主要为飞船、空间站等载人航天器及中低轨道资源卫星提供数据中继与测控服务,同时为航天器发射提供测控支持,是中国天链中继卫星体系的重要组成,进一步提升了中国空间数据中继传输和测控支撑能力。

基本信息
目录编号:
63662
目录名称:
TIANLIAN-2 05
国际标识:
2025-084A
轨道中心:
EARTH
卫星名称:
TIANLIAN-2 05
卫星全名:
TIANLIAN-2 05
卫星状态:
在轨 (已飞行456 天)
发射日期:
2025-04-27 UTC
国别 :
中国 (CN)
星等 :
--
轨道信息
数据来源 国际轨道数据 AOE轨道数据
星历时间 2026-07-27T16:05:39+0800
14小时前
查看轨道信息
2026-07-28T04:00:00+0800
2小时前
查看轨道信息
半长轴 42164.28km 42164.392km
偏心率 0.0002746 0.0002776
轨道倾角 4.353° 4.352°
近地点辐角 165.650° 164.416°
升交点赤经 279.374° 279.370°
平近点角 1.806° 182.122°
近地点 35774.564km 35774.55km
远地点 35797.722km 35797.96km
周期 1436.074分钟 1436.080分钟
每日圈数 1.002734 1.00273
详细信息
使用方式:
暂无
2D轨道图
3D轨道图
轨道高度分析图
轨道倾角分析图
轨道综合分析图
查看轨道综合分析图